WZZ30SL LIEA-LHBP

Flight info

Callsign WZZ30SL
Flight time 1h 42m
Altitude 38000
Route ORVEX DCT KOLUS DCT ADRUX DCT MAMAR DCT MEDAL DCT TIMOV DCT GIKIN DCT RITEB DCT GITOD DCT KATAR DCT GOTMO/N0432F370 DCT KOPRY DCT ULZAK
Aircraft A320/M-SDE1E2E3FGIJ1J4RWXY/LB1

Departure

Time 2026-05-04 09:34
Airport Alghero-Fertilia Airport (LIEA)

Arrival

Time 2026-05-04 11:16
Airport Budapest Liszt Ferenc International Airport (LHBP)
Time Latitude Longitude Altitude Speed Heading
2026-05-04 09:05 40.63001 8.29422 116 ft 0 kts 114°
2026-05-04 09:23 40.63002 8.29420 88 ft 2 kts 114°
2026-05-04 09:25 40.63055 8.29369 92 ft 0 kts 205°
2026-05-04 09:27 40.63049 8.29365 92 ft 4 kts 205°
2026-05-04 09:28 40.62991 8.29330 90 ft 13 kts 205°
2026-05-04 09:28 40.62907 8.29280 90 ft 11 kts 205°
2026-05-04 09:28 40.62857 8.29192 91 ft 14 kts 250°
2026-05-04 09:28 40.62803 8.29081 87 ft 15 kts 210°
2026-05-04 09:29 40.62694 8.29014 86 ft 20 kts 204°
2026-05-04 09:29 40.62559 8.28933 80 ft 22 kts 204°
2026-05-04 09:29 40.62421 8.28850 84 ft 20 kts 204°
2026-05-04 09:29 40.62285 8.28768 81 ft 22 kts 204°
2026-05-04 09:30 40.62145 8.28684 85 ft 23 kts 204°
2026-05-04 09:30 40.62030 8.28614 86 ft 17 kts 205°
2026-05-04 09:30 40.61951 8.28557 90 ft 10 kts 226°
2026-05-04 09:30 40.61929 8.28456 83 ft 13 kts 278°
2026-05-04 09:31 40.61989 8.28388 87 ft 11 kts 342°
2026-05-04 09:31 40.62060 8.28385 86 ft 8 kts 19°
2026-05-04 09:31 40.62166 8.28448 85 ft 43 kts 25°
2026-05-04 09:31 40.62661 8.28746 86 ft 109 kts 25°
2026-05-04 09:32 40.63509 8.29255 97 ft 156 kts 24°
2026-05-04 09:32 40.64552 8.29866 526 ft 164 kts 26°
2026-05-04 09:34 40.74055 8.35616 4102 ft 275 kts 25°
2026-05-04 09:34 40.75784 8.36655 5037 ft 279 kts 25°
2026-05-04 09:34 40.77497 8.37886 5935 ft 283 kts 37°
2026-05-04 09:34 40.78944 8.39661 6822 ft 287 kts 52°
2026-05-04 09:35 40.80009 8.41898 7665 ft 290 kts 67°
2026-05-04 09:35 40.80714 8.44420 8482 ft 295 kts 72°
2026-05-04 09:35 40.81397 8.47004 9327 ft 300 kts 71°
2026-05-04 09:35 40.82096 8.49629 10119 ft 306 kts 71°
2026-05-04 09:37 40.79472 8.69693 14202 ft 359 kts 135°
2026-05-04 09:37 40.77775 8.72138 14834 ft 363 kts 135°
2026-05-04 09:38 40.76082 8.74582 15448 ft 367 kts 135°
2026-05-04 09:38 40.74351 8.77088 16055 ft 370 kts 135°
2026-05-04 09:38 40.72605 8.79614 16666 ft 374 kts 135°
2026-05-04 09:38 40.70864 8.82190 17274 ft 379 kts 130°
2026-05-04 09:39 40.69442 8.85156 17873 ft 386 kts 117°
2026-05-04 09:39 40.68521 8.88513 18461 ft 393 kts 104°
2026-05-04 09:39 40.68174 8.92104 18961 ft 399 kts 91°
2026-05-04 09:39 40.68370 8.95771 19490 ft 403 kts 84°
2026-05-04 09:40 40.68652 8.99463 20027 ft 406 kts 84°
2026-05-04 09:40 40.68922 9.03139 20553 ft 410 kts 84°
2026-05-04 09:40 40.69191 9.06913 21078 ft 413 kts 84°
2026-05-04 09:40 40.69460 9.10703 21581 ft 417 kts 84°
2026-05-04 09:41 40.69732 9.14526 22068 ft 420 kts 84°
2026-05-04 09:42 40.71716 9.42099 25104 ft 444 kts 80°
2026-05-04 09:43 40.72410 9.46021 25462 ft 446 kts 70°
2026-05-04 09:43 40.73501 9.49861 25822 ft 448 kts 66°
2026-05-04 09:43 40.74644 9.53710 26186 ft 452 kts 66°
2026-05-04 09:43 40.75895 9.57527 26552 ft 454 kts 59°
2026-05-04 09:44 40.77540 9.61075 26913 ft 453 kts 50°
2026-05-04 09:44 40.79558 9.64268 27257 ft 453 kts 42°
2026-05-04 09:44 40.81724 9.67312 27614 ft 456 kts 42°
2026-05-04 09:46 40.97214 9.89216 30186 ft 477 kts 42°
2026-05-04 09:46 40.99479 9.92436 30499 ft 479 kts 42°
2026-05-04 09:46 41.01761 9.95679 30819 ft 481 kts 42°
2026-05-04 09:47 41.04053 9.98937 31147 ft 483 kts 42°
2026-05-04 09:47 41.06323 10.02168 31517 ft 484 kts 42°
2026-05-04 09:49 41.22205 10.24913 34717 ft 475 kts 42°
2026-05-04 09:49 41.24445 10.28139 35097 ft 474 kts 42°
2026-05-04 09:49 41.26653 10.31326 35468 ft 474 kts 42°
2026-05-04 09:51 41.39972 10.50572 37513 ft 469 kts 41°
2026-05-04 09:51 41.42183 10.53776 37828 ft 469 kts 41°
2026-05-04 09:51 41.44399 10.56987 38093 ft 469 kts 41°
2026-05-04 09:52 41.48827 10.63424 38156 ft 470 kts 41°
2026-05-04 09:52 41.53213 10.69830 38156 ft 470 kts 41°
2026-05-04 09:53 41.57623 10.76273 38157 ft 469 kts 41°
2026-05-04 09:53 41.62027 10.82720 38162 ft 469 kts 42°
2026-05-04 09:54 41.66430 10.89168 38170 ft 469 kts 42°
2026-05-04 09:54 41.70805 10.95587 38181 ft 469 kts 42°
2026-05-04 09:55 41.75197 11.02050 38181 ft 469 kts 42°
2026-05-04 09:55 41.79583 11.08526 38190 ft 468 kts 41°
2026-05-04 09:56 41.84414 11.14235 38190 ft 461 kts 34°
2026-05-04 09:56 41.89319 11.19711 38194 ft 461 kts 34°
2026-05-04 09:57 41.94257 11.25237 38198 ft 461 kts 34°
2026-05-04 09:57 41.99190 11.30767 38201 ft 461 kts 34°
2026-05-04 09:58 42.04086 11.36276 38199 ft 461 kts 34°
2026-05-04 09:58 42.08981 11.41874 38201 ft 461 kts 36°
2026-05-04 10:00 42.28254 11.64754 38209 ft 460 kts 36°
2026-05-04 10:04 42.61639 12.04630 38190 ft 453 kts 38°
2026-05-04 10:04 42.65404 12.09598 38187 ft 454 kts 43°
2026-05-04 10:05 42.69703 12.15905 38189 ft 454 kts 45°
2026-05-04 10:05 42.73955 12.22255 38182 ft 454 kts 44°
2026-05-04 10:06 42.78262 12.28547 38191 ft 453 kts 44°
2026-05-04 10:06 42.82595 12.34791 38199 ft 453 kts 44°
2026-05-04 10:08 42.97650 12.56722 38214 ft 452 kts 45°
2026-05-04 10:08 43.01943 12.63022 38215 ft 452 kts 45°
2026-05-04 10:09 43.06203 12.69285 38210 ft 452 kts 45°
2026-05-04 10:09 43.10485 12.75565 38209 ft 452 kts 45°
2026-05-04 10:10 43.14786 12.81872 37916 ft 452 kts 45°
2026-05-04 10:10 43.16925 12.85020 37630 ft 451 kts 45°
2026-05-04 10:10 43.19067 12.88179 37355 ft 452 kts 45°
2026-05-04 10:11 43.21186 12.91292 37127 ft 452 kts 44°
2026-05-04 10:11 43.23413 12.94317 37167 ft 451 kts 41°
2026-05-04 10:11 43.28098 13.00061 37143 ft 451 kts 38°
2026-05-04 10:12 43.32848 13.05722 37147 ft 451 kts 39°
2026-05-04 10:12 43.37528 13.11479 37144 ft 451 kts 40°
2026-05-04 10:13 43.42129 13.17277 37141 ft 451 kts 40°
2026-05-04 10:13 43.46757 13.23125 37139 ft 450 kts 40°
2026-05-04 10:14 43.51384 13.28951 37139 ft 450 kts 40°
2026-05-04 10:16 43.69805 13.52221 37137 ft 448 kts 40°
2026-05-04 10:16 43.74363 13.58020 37141 ft 447 kts 40°
2026-05-04 10:17 43.78941 13.63854 37144 ft 447 kts 40°
2026-05-04 10:19 43.97142 13.87159 37147 ft 444 kts 40°
2026-05-04 10:19 44.01677 13.92998 37145 ft 443 kts 40°
2026-05-04 10:20 44.06168 13.98787 37148 ft 442 kts 40°
2026-05-04 10:20 44.10678 14.04620 37147 ft 442 kts 40°
2026-05-04 10:21 44.15177 14.10451 37147 ft 441 kts 40°
2026-05-04 10:21 44.19667 14.16283 37146 ft 440 kts 40°
2026-05-04 10:22 44.26352 14.25001 37146 ft 440 kts 40°
2026-05-04 10:23 44.30824 14.30843 37147 ft 439 kts 40°
2026-05-04 10:25 44.48612 14.54197 37150 ft 438 kts 40°
2026-05-04 10:25 44.53051 14.60057 37153 ft 437 kts 40°
2026-05-04 10:26 44.57475 14.65907 37154 ft 437 kts 40°
2026-05-04 10:26 44.61862 14.71727 37154 ft 436 kts 40°
2026-05-04 10:27 44.66272 14.77588 37159 ft 436 kts 40°
2026-05-04 10:27 44.70671 14.83451 37152 ft 435 kts 40°
2026-05-04 10:28 44.75068 14.89319 37154 ft 435 kts 40°
2026-05-04 10:28 44.79458 14.95195 37148 ft 434 kts 40°
2026-05-04 10:29 44.83811 15.01026 37150 ft 434 kts 40°
2026-05-04 10:29 44.88186 15.06908 37140 ft 434 kts 40°
2026-05-04 10:30 44.92554 15.12804 37139 ft 433 kts 40°
2026-05-04 10:30 44.96882 15.18640 37134 ft 432 kts 40°
2026-05-04 10:31 45.01234 15.24522 37129 ft 432 kts 40°
2026-05-04 10:32 45.16372 15.45095 37115 ft 430 kts 41°
2026-05-04 10:33 45.20685 15.50987 37112 ft 430 kts 41°
2026-05-04 10:33 45.24997 15.56904 37112 ft 430 kts 41°
2026-05-04 10:34 45.29268 15.62769 37110 ft 430 kts 41°
2026-05-04 10:34 45.33567 15.68678 37112 ft 429 kts 41°
2026-05-04 10:35 45.37866 15.74599 37109 ft 429 kts 41°
2026-05-04 10:35 45.42128 15.80480 37115 ft 429 kts 41°
2026-05-04 10:36 45.46414 15.86420 37115 ft 428 kts 41°
2026-05-04 10:36 45.50681 15.92346 37113 ft 428 kts 41°
2026-05-04 10:37 45.54921 15.98249 37115 ft 428 kts 41°
2026-05-04 10:37 45.59183 16.04197 37112 ft 428 kts 41°
2026-05-04 10:39 45.74041 16.25002 37111 ft 427 kts 42°
2026-05-04 10:40 45.78283 16.30975 37116 ft 427 kts 42°
2026-05-04 10:40 45.82521 16.36946 37116 ft 426 kts 42°
2026-05-04 10:41 45.86726 16.42892 37118 ft 426 kts 42°
2026-05-04 10:41 45.90953 16.48887 37117 ft 426 kts 42°
2026-05-04 10:42 45.95143 16.54845 37121 ft 426 kts 42°
2026-05-04 10:42 45.99357 16.60842 37118 ft 426 kts 42°
2026-05-04 10:43 46.03569 16.66856 37129 ft 425 kts 42°
2026-05-04 10:45 46.20326 16.90905 37121 ft 425 kts 43°
2026-05-04 10:45 46.24396 16.97107 37115 ft 426 kts 50°
2026-05-04 10:46 46.27807 17.04091 37121 ft 427 kts 52°
2026-05-04 10:46 46.31214 17.11156 37119 ft 427 kts 52°
2026-05-04 10:46 46.32916 17.14686 36933 ft 428 kts 52°
2026-05-04 10:47 46.34614 17.18217 36668 ft 427 kts 53°
2026-05-04 10:47 46.35743 17.20570 36495 ft 427 kts 53°
2026-05-04 10:47 46.37989 17.25259 36151 ft 427 kts 53°
2026-05-04 10:47 46.39685 17.28800 35888 ft 426 kts 53°
2026-05-04 10:49 46.50673 17.51891 32990 ft 407 kts 53°
2026-05-04 10:49 46.52272 17.55265 32523 ft 404 kts 53°
2026-05-04 10:50 46.53838 17.58572 32080 ft 400 kts 53°
2026-05-04 10:51 46.64542 17.81303 29071 ft 376 kts 53°
2026-05-04 10:52 46.66012 17.84442 28661 ft 373 kts 53°
2026-05-04 10:52 46.67468 17.87554 28291 ft 369 kts 53°
2026-05-04 10:52 46.68908 17.90638 27908 ft 366 kts 53°
2026-05-04 10:54 46.78616 18.11471 25279 ft 345 kts 54°
2026-05-04 10:54 46.79955 18.14362 24901 ft 342 kts 54°
2026-05-04 10:56 46.89069 18.34091 22105 ft 325 kts 55°
2026-05-04 10:56 46.90326 18.36821 21712 ft 323 kts 55°
2026-05-04 10:56 46.91574 18.39537 21328 ft 320 kts 55°
2026-05-04 10:57 46.92812 18.42236 20949 ft 318 kts 55°
2026-05-04 10:57 46.94028 18.44897 20574 ft 316 kts 55°
2026-05-04 10:57 46.95246 18.47564 20183 ft 314 kts 55°
2026-05-04 10:57 46.96461 18.50219 19799 ft 313 kts 55°
2026-05-04 10:58 46.97671 18.52856 19411 ft 311 kts 55°
2026-05-04 10:58 46.98949 18.55408 19041 ft 310 kts 48°
2026-05-04 10:58 47.00521 18.57561 18663 ft 309 kts 37°
2026-05-04 10:58 47.02297 18.59249 18271 ft 308 kts 32°
2026-05-04 10:59 47.04133 18.60870 17862 ft 306 kts 32°
2026-05-04 10:59 47.05956 18.62483 17482 ft 304 kts 32°
2026-05-04 10:59 47.07764 18.64084 17109 ft 302 kts 32°
2026-05-04 10:59 47.09561 18.65675 16734 ft 301 kts 32°
2026-05-04 11:00 47.11350 18.67261 16362 ft 300 kts 32°
2026-05-04 11:01 47.21905 18.81021 13777 ft 293 kts 58°
2026-05-04 11:02 47.22991 18.83561 13396 ft 292 kts 57°
2026-05-04 11:02 47.24056 18.86049 13038 ft 290 kts 58°
2026-05-04 11:05 47.42419 19.07857 8526 ft 270 kts 314°
2026-05-04 11:06 47.43659 19.05814 8142 ft 269 kts 314°
2026-05-04 11:06 47.44912 19.03758 7744 ft 269 kts 314°
2026-05-04 11:06 47.46174 19.01696 7357 ft 270 kts 314°
2026-05-04 11:06 47.47436 18.99637 6984 ft 269 kts 314°
2026-05-04 11:08 47.57042 18.92403 4992 ft 219 kts 45°
2026-05-04 11:10 47.56570 19.03056 3797 ft 182 kts 132°
2026-05-04 11:12 47.50869 19.12337 2174 ft 147 kts 132°
2026-05-04 11:12 47.50207 19.13413 2001 ft 137 kts 131°
2026-05-04 11:12 47.49575 19.14440 1804 ft 133 kts 132°
2026-05-04 11:12 47.48951 19.15454 1630 ft 133 kts 132°
2026-05-04 11:13 47.48328 19.16465 1452 ft 133 kts 133°
2026-05-04 11:13 47.47710 19.17468 1291 ft 132 kts 135°
2026-05-04 11:13 47.47087 19.18477 1128 ft 133 kts 136°
2026-05-04 11:13 47.46462 19.19495 937 ft 135 kts 136°
2026-05-04 11:14 47.46256 19.19828 916 ft 135 kts 136°
2026-05-04 11:16 47.43158 19.25138 455 ft 14 kts 43°
2026-05-04 11:16 47.43235 19.25241 457 ft 16 kts 42°
2026-05-04 11:16 47.43321 19.25357 457 ft 18 kts 42°
2026-05-04 11:17 47.43418 19.25487 457 ft 20 kts 42°
2026-05-04 11:17 47.43521 19.25625 457 ft 11 kts 42°
2026-05-04 11:19 47.43331 19.25882 457 ft 0 kts 222°